Regional Weather Roundup
Issued by NWS

Home | Current Version | Previous Version | Text Only | Print | Product List | Glossary On
Versions: 1 2 3 4 5 6 7 8 9 10 11 12 13 14 15 16 17 18 19 20 21 22 23 24 25 26 27 28 29 30 31 32 33 34 35 36 37 38 39 40 41 42 43 44 45 46 47 48 49 50
000
ASUS43 KLSX 180959
RWRMO

WEATHER SUMMARY FOR MISSOURI
NATIONAL WEATHER SERVICE SPRINGFIELD MO
400 AM CST THU DEC 18 2014

NOTE: "FAIR" INDICATES FEW OR NO CLOUDS BELOW 12,000 FEET WITH NO
       SIGNIFICANT WEATHER AND/OR OBSTRUCTIONS TO VISIBILITY.
       CURRENT SKY AND/OR WEATHER CONDITIONS ARE NOT AVAILABLE FOR
       CHILLICOTHE AND FARMINGTON.

MOZ001>031-035>038-043-044-053-054-181100-
...NORTHERN AND WESTERN MISSOURI...

CITY           SKY/WX    TMP DP  RH WIND       PRES   REMARKS
KANSAS CTY INT LGT SNOW  28  26  92 E7        30.22S VSB 1   WCI  21
KANSAS C DTWN  LGT SNOW  29  27  92 NE7       30.23F FOG     WCI  22
LEE`S SUMMIT   LGT SNOW  28  26  92 E6        30.22F FOG     WCI  22
ST JOSEPH      LGT SNOW  28  26  92 E5        30.24F FOG     WCI  23
CHILLICOTHE      N/A     28  25  88 CALM      30.27F
KIRKSVILLE     CLOUDY    26  21  81 NE7       30.26F WCI  18

$$
MOZ066>068-077>081-088>096-101>105-181100-
...SOUTHWEST MISSOURI...

CITY           SKY/WX    TMP DP  RH WIND       PRES   REMARKS
SPRINGFIELD    CLOUDY    33  31  92 SE6       30.16S FOG     WCI  28
JOPLIN         LGT RAIN  34  33  96 E6        30.17F FOG     WCI  29

$$
MOZ032>034-039>042-045>050-055>058-069>072-181100-
...CENTRAL MISSOURI...

CITY           SKY/WX    TMP DP  RH WIND       PRES   REMARKS
COLUMBIA       LGT SNOW  29  27  92 E8        30.24S FOG     WCI  21
JEFFERSON CITY CLOUDY    32  27  81 NE3       30.26F
ROLLA          CLOUDY    30  29  96 NE6       30.20S FOG     WCI  24
SEDALIA        LGT SNOW  31  29  92 CALM      30.24S FOG
WARRENSBURG    LGT SNOW  30  28  93 NE3       30.24F
OSAGE BEACH    CLOUDY    30  28  93 NE6       30.22S WCI  24

$$
MOZ051-052-059>065-181100-
...EAST CENTRAL MISSOURI...

CITY           SKY/WX    TMP DP  RH WIND       PRES   REMARKS
ST LOUIS INTL  FLURRIES  30  23  75 E3        30.28F
SPIRIT OF STL  CLOUDY   N/A N/A N/A NE6       30.27F
ST CHARLES     CLOUDY    29  23  78 NE3       30.29F

$$
MOZ072>076-082>087-097>100-106>115-181100-
...SOUTH CENTRAL AND SOUTHEAST MISSOURI...

CITY           SKY/WX    TMP DP  RH WIND       PRES   REMARKS
CAPE GIRARDEAU CLOUDY    33  32  96 NE6       30.25F FOG     WCI  28
FARMINGTON     CLOUDY    32  30  93 CALM      30.24F
POPLAR BLUFF   LGT RAIN  34  31  88 CALM      30.25F FOG
WEST PLAINS    CLOUDY    33  31  92 SE6       30.20F FOG     WCI  28

$$


USA.gov is the U.S. government's official web portal to all federal, state and local government web resources and services.